< < Back
Terminal Aerodrome Forecast


Current Version              Previous Versions:   1  2  3  4  5  6  7  8  9  

Terminal Aerodrome Forecast

112
FTUS42 KJAX 222300
TAFJAX
TAF
KJAX 222320Z 2300/2324 05005KT P6SM SKC
     FM230200 36003KT P6SM SKC
     FM231400 03009KT P6SM SKC=

Latest METAR

610
SAUS80 KWBC 230000
MTRJAX
METAR KJAX 222356Z 03003KT 10SM CLR 15/13 A3003 RMK AO2 SLP168 T01500128
10233 20150 53015 $


USA.gov is the U.S. government's official web portal to all federal, state and local government web resources and services.